User: anonymous   Login
Location: Mentone
(34.5413°N, 85.5351°W)
Time: 23:44:07
(UTC-06:00)
Language:

ERBS - Orbit

View from above orbital plane
View from above orbital plane
View from above satellite
View from above satellite

Ground track
Ground track

The orbit data is extracted from the following two-line orbital elements,

1 15354U 84108B   16340.29087151  .00003331  00000-0  85016-4 0  9990
2 15354  57.0084 252.3516 0017249  94.5875 265.7151 15.42325130768272
Epoch (UTC): 05 December 2016 06:58:51
Eccentricity: 0.0017249
inclination: 57.0084°
perigee height: 427 km
apogee height: 451 km
right ascension of ascending node: 252.3516°
argument of perigee: 94.5875°
revolutions per day: 15.42325130
mean anomaly at epoch: 265.7151°
orbit number at epoch: 76827

The dashed part of the orbit path shows where the satellite is in the earth's shadow,  

DLR